Regional Weather Roundup
Issued by NWS

Home | Current Version | Previous Version | Graphics & Text | Print | Product List | Glossary On
Versions: 1 2 3 4 5 6 7 8 9 10 11 12 13 14 15 16 17 18 19 20 21 22 23 24 25 26 27 28 29 30 31 32 33 34 35 36 37 38 39 40 41 42 43 44 45 46 47 48 49 50
000
ASUS43 KFSD 240602
RWRSD

WEATHER ROUNDUP FOR SOUTH DAKOTA
NATIONAL WEATHER SERVICE SIOUX FALLS SD
100 AM CDT SAT JUN 24 2017

NOTE: "FAIR" INDICATES FEW OR NO CLOUDS BELOW 12,000 FEET WITH NO
SIGNIFICANT WEATHER AND/OR OBSTRUCTIONS TO VISIBILITY.


SDZ001>005-009-010-012>017-240700-
NORTHWEST AND NORTH CENTRAL SOUTH DAKOTA

CITY           SKY/WX    TMP DP  RH WIND       PRES   REMARKS
BUFFALO          N/A     50  30  46 NW8       30.16R
FAITH            N/A     49  34  56 W7        30.18S
MOBRIDGE       PTCLDY    44  37  76 CALM      30.11F
$$

SDZ012>016-024>037-041>051-057-063-072>074-240700-
SOUTHWEST AND SOUTH CENTRAL SOUTH DAKOTA

CITY           SKY/WX    TMP DP  RH WIND       PRES   REMARKS
RAPID CTY ARPT CLEAR     45  29  53 NW8       30.24S
PIERRE         CLEAR     48  39  71 NW7       30.15R
CUSTER         CLEAR     43  25  49 NW6       30.32R
ELLSWORTH AFB  CLEAR     50  28  42 NW7       30.23S
PHILIP         PTCLDY    45  33  63 W8        30.19S
PINE RIDGE     CLEAR     43  36  76 SW3       30.26R
SPEARFISH      FAIR      46  30  53 CALM      30.27S
WINNER         FAIR      50  35  56 W6        30.18R
$$

SDZ004>011-016>023-039-040-240700-
NORTHEAST SOUTH DAKOTA

CITY           SKY/WX    TMP DP  RH WIND       PRES   REMARKS
ABERDEEN       CLEAR     45  38  76 W3        30.10S
WATERTOWN      CLEAR     53  42  66 NW9       30.08S
BROOKINGS      CLEAR     48  42  80 NW7       30.10R
SISSETON         N/A     53  40  61 NW9       30.04S
$$

SDZ017-020-022-023-036>040-048>070-240700-
SOUTHEAST SOUTH DAKOTA

CITY           SKY/WX    TMP DP  RH WIND       PRES   REMARKS
SIOUX FALLS    CLEAR     52  43  71 W8        30.10R
HURON          CLEAR     47  44  90 W6        30.13R
CHAMBERLAIN    CLEAR     56  41  57 CALM      30.16S
MITCHELL       CLEAR     53  40  61 W7        30.14R
$$

ABBREVIATIONS USED IN REMARKS
   TC - TEMPERATURE IN CELSIUS
  WCI - WIND CHILL INDEX
   HX - HEAT INDEX
  VSB - VISIBILITY





USA.gov is the U.S. government's official web portal to all federal, state and local government web resources and services.